CAPE
0 0 0 0 0 0 0 0 0 0 0 0 0 0 0 0 0 0 0 0 0 0
0 0 0 0 0 0 0 0 0 0 0 0 0 0 0 0 0 0 0 0 0 0
0 0 0 0 0 0 0 0 0 0 0 0 0 0 0 0 0 0 0 0 0 0
0 0 0 0 0 0 0 0 0 0 0 0 0 0 0 0 0 0 0 0 0 0
0 0 0 0 0 0 0 0 0 0 0 0 0 0 0 0 0 0 0 0 0 0
0 0 0 0 0 0 0 0 0 0 0 0 0 0 0 0 0 0 0 0 0 0
0 0 0 0 0 0 0 0 0 0 0 0 0 0 0 0 0 0 0 0 0 0
0 0 0 0 0 0 0 0 0 0 0 0 0 0 0 0 0 0 0 0 0 0
0 0 0 0 0 0 0 0 0 0 0 0 0 0 0 0 0 0 0 0 0 0
0 0 0 0 0 0 0 0 0 0 0 0 0 0 0 0 0 0 0 0 0 0
0 0 0 0 0 0 0 0 0 0 0 0 0 0 0 0 0 0 0 0 0 0
0 0 0 0 0 0 0 0 0 0 0 0 0 0 0 0 0 0 0 0 0 0
0 0 0 0 0 0 0 0 0 0 0 0 0 0 0 0 0 0 0 0 0 0
0 0 0 0 0 0 0 0 0 0 0 0 0 0 0 0 0 0 0 0 0 0
CIN
-0 -0 -0 -0 -0 -0 -0 -0 -0 -0 -0 -0 -0 -0 -0 -0 -0 -0 -0 -0 -0 -0
-0 -0 -0 -0 -0 -0 -0 -0 -0 -0 -0 -0 -0 -0 -0 -0 -0 -0 -0 -0 -0 -0
-0 -0 -0 -0 -0 -0 -0 -0 -0 -0 -0 -0 -0 -0 -0 -0 -0 -0 -0 -0 -0 -0
-0 -0 -0 -0 -0 -0 -0 -0 -0 -0 -0 -0 -0 -0 -0 -0 -0 -0 -0 -0 -0 -0
-0 -0 -0 -0 -0 -0 -0 -0 -0 -0 -0 -0 -0 -0 -0 -0 -0 -0 -0 -0 -0 -0
-0 -0 -0 -0 -0 -0 -0 -0 -0 -0 -0 -0 -0 -0 -0 -0 -0 -0 -0 -0 -0 -0
-0 -0 -0 -0 -0 -0 -0 -0 -0 -0 -0 -0 -0 -0 -0 -0 -0 -0 -0 -0 -0 -0
-0 -0 -0 -0 -0 -0 -0 -0 -0 -0 -0 -0 -0 -0 -0 -0 -0 -0 -0 -0 -0 -0
-0 -0 -0 -0 -0 -0 -0 -0 -0 -0 -0 -0 -0 -0 -0 -0 -0 -0 -0 -0 -0 -0
-0 -0 -0 -0 -0 -0 -0 -0 -0 -0 -0 -0 -0 -0 -0 -0 -0 -0 -0 -0 -0 -0
-0 -0 -0 -0 -0 -0 -0 -0 -0 -0 -0 -0 -0 -0 -0 -0 -0 -0 -0 -0 -0 -0
-0 -0 -0 -0 -0 -0 -0 -0 -0 -0 -0 -0 -0 -0 -0 -0 -0 -0 -0 -0 -0 -0
-0 -0 -0 -0 -0 -0 -0 -0 -0 -0 -0 -0 -0 -0 -0 -0 -0 -0 -0 -0 -0 -0
-0 -0 -0 -0 -0 -0 -0 -0 -0 -0 -0 -0 -0 -0 -0 -0 -0 -0 -0 -0 -0 -0
Wind_Speed
11 10 8 6 7 8 10 9 8 8 9 9 9 10 11 12 13 14 16 17 18 19
11 9 8 7 7 9 8 8 7 6 7 7 8 9 10 11 12 13 15 17 18 19
9 9 7 7 8 8 8 7 6 5 5 6 7 8 9 10 12 14 15 16 16 17
8 8 8 8 8 9 8 7 6 6 6 6 7 7 8 10 11 13 14 14 14 16
8 8 8 9 9 9 9 6 6 6 6 6 6 7 9 9 11 11 12 12 14 16
9 9 10 9 9 8 7 6 6 5 5 5 6 7 8 9 10 11 11 12 14 17
10 10 10 9 9 8 7 6 5 5 5 5 6 7 8 10 11 11 12 13 14 16
9 9 10 10 9 7 6 6 4 4 5 6 6 8 9 10 11 11 12 13 15 16
9 10 10 9 7 7 6 5 5 5 6 7 8 9 9 11 11 11 13 15 15 16
10 10 9 8 7 7 6 5 6 6 7 8 9 9 8 8 12 14 15 16 17 19
11 10 9 8 7 7 6 6 7 7 7 8 9 9 9 11 13 16 18 19 19 20
10 9 8 8 8 7 7 7 7 7 8 8 11 12 12 13 17 19 20 20 20 22
10 10 9 9 8 8 9 9 8 9 11 12 14 15 14 15 19 22 22 22 23 23
10 9 9 9 9 10 11 11 11 13 13 14 15 16 17 18 20 22 23 25 27 25
Wind_Direction
278 276 280 271 298 308 319 329 340 345 355 360 6 10 10 9 9 9 7 6 7 7
275 269 276 288 294 309 320 327 335 345 351 1 5 4 7 6 5 6 5 4 6 6
266 270 276 286 293 303 314 320 323 338 350 355 356 1 2 2 1 1 2 3 5 5
265 267 277 287 295 301 309 311 313 323 334 341 346 355 353 353 357 357 358 2 3 3
267 271 280 287 292 300 303 303 309 317 326 329 336 342 344 349 351 351 353 358 359 356
272 276 281 288 294 295 296 299 304 312 314 322 329 334 338 340 343 346 351 352 352 352
274 280 285 290 292 291 289 287 293 302 310 316 324 327 329 334 339 342 346 345 346 347
281 287 289 290 289 289 285 286 291 293 301 315 319 322 324 329 334 337 338 338 337 340
284 289 290 290 283 285 275 273 278 280 297 310 318 321 322 329 329 328 328 329 331 333
282 285 285 283 278 271 257 262 270 283 298 308 316 320 317 317 327 326 323 323 323 326
280 282 281 275 266 263 260 252 270 287 297 306 312 313 315 316 320 320 321 320 319 321
276 275 271 263 260 258 248 258 270 290 295 301 316 318 319 319 320 317 317 316 316 315
274 272 268 265 257 266 270 273 282 292 307 310 315 317 316 316 319 316 316 315 314 311
275 271 272 273 274 272 275 285 292 300 307 310 313 315 314 313 315 314 315 315 315 313